Regional Weather Roundup
Issued by NWS

Home | Current Version | Previous Version | Text Only | Print | Product List | Glossary Off
Versions: 1 2 3 4 5 6 7 8 9 10 11 12 13 14 15 16 17 18 19 20 21 22 23 24 25 26 27 28 29 30 31 32 33 34 35 36 37 38 39 40 41 42 43 44 45 46 47 48 49 50

000
ASUS43 KLSX 270957
RWRMO

WEATHER SUMMARY FOR MISSOURI
NATIONAL WEATHER SERVICE SPRINGFIELD MO
500 AM CDT FRI MAY 27 2016

NOTE: "FAIR" INDICATES FEW OR NO CLOUDS BELOW 12,000 FEET WITH NO
       SIGNIFICANT WEATHER AND/OR OBSTRUCTIONS TO VISIBILITY.
       CURRENT SKY AND/OR WEATHER CONDITIONS ARE NOT AVAILABLE FOR
       CHILLICOTHE AND FARMINGTON.

MOZ001>031-035>038-043-044-053-054-271100-
...NORTHERN AND WESTERN MISSOURI...

CITY           SKY/WX    TMP DP  RH WIND       PRES   REMARKS
KANSAS CTY INT LGT RAIN  62  60  93 NE18      29.64F
LEE`S SUMMIT   CLOUDY    61  60  97 N16       29.67F
ST JOSEPH      CLOUDY    61  60  97 NE12      29.70F
CHILLICOTHE      N/A     63  62  97 E6        29.77S

$$
MOZ066>068-077>081-088>096-101>105-271100-
...SOUTHWEST MISSOURI...

CITY           SKY/WX    TMP DP  RH WIND       PRES   REMARKS
SPRINGFIELD    CLOUDY    69  66  90 SE14      29.77F
JOPLIN         CLOUDY    61  59  93 N6        29.77F

$$
MOZ032>034-039>042-045>050-055>058-069>072-271100-
...CENTRAL MISSOURI...

CITY           SKY/WX    TMP DP  RH WIND       PRES   REMARKS
COLUMBIA       NOT AVBL
JEFFERSON CITY CLOUDY    68  66  93 SE17G24   29.81R
ROLLA          HVY RAIN  66  64  93 SE15      29.84S FOG
SEDALIA        CLOUDY    69  66  90 MISG      29.76F
WARRENSBURG    RAIN      63  61  94 W8G22     29.75R

$$
MOZ051-052-059>065-271100-
...EAST CENTRAL MISSOURI...

CITY           SKY/WX    TMP DP  RH WIND       PRES   REMARKS
ST LOUIS INTL  LGT RAIN  69  65  86 S9        29.90R

$$
MOZ072>076-082>087-097>100-106>115-271100-
...SOUTH CENTRAL AND SOUTHEAST MISSOURI...

CITY           SKY/WX    TMP DP  RH WIND       PRES   REMARKS
CAPE GIRARDEAU TSTM      67  64  90 W12       29.93R FOG
FARMINGTON     LGT RAIN  66  64  94 S7        29.91F
POPLAR BLUFF   TSTM      67  66  97 SE3       29.90S FOG
WEST PLAINS    HVY RAIN  67  64  90 S8        29.88R FOG

$$



USA.gov is the U.S. government's official web portal to all federal, state and local government web resources and services.